Date String (YYYY-MM-DD hh:mm:ss) UTC,Instrument flags,Ambient pressure (hPa),Sample flow (lpm),Bypass flow (lpm),Sample temperature (°C),Ambient temperature (°C),ASC tube jacket temperature (°C),LED temperature (°C),Box temperature (°C),Sample RH (%),Span deviation,Mass concentration (μg/m³),Mass concentration (μg/m³),Mass concentration (μg/m³)
DateTimeUTC,F1_M11,P_M11,Q1_M11,Q2_M11,T1_M11,T2_M11,T3_M11,T4_M11,T5_M11,U1_M11,ZSPAN_M11,X0_M11,X2_M11,X1_M11
2022-09-05 15:00:00,,0829.1,5.01,0.00,30.1,29.0,00.0,38.8,32.0,19.0,0000.0,0018.58,0008.00,0006.41
2022-09-05 15:01:00,,0829.0,4.99,0.00,30.1,28.2,00.0,38.8,32.0,19.0,0000.0,0017.50,0007.96,0006.42
2022-09-05 15:02:00,,0829.1,5.00,0.00,30.1,27.1,00.0,38.8,31.9,19.1,0000.0,0017.82,0007.91,0006.42
2022-09-05 15:03:00,,0829.1,5.00,0.00,30.1,27.1,00.0,38.7,31.9,19.4,0000.0,0017.12,0007.93,0006.43
2022-09-05 15:04:00,,0829.1,5.02,0.00,30.0,27.4,00.0,38.7,31.8,19.5,0000.0,0016.89,0007.88,0006.42
2022-09-05 15:05:00,,0829.0,5.00,0.00,30.0,27.7,00.0,38.7,31.7,19.3,0000.0,0016.97,0007.83,0006.43
2022-09-05 15:06:00,,0829.1,4.99,0.00,30.0,28.0,00.0,38.7,31.8,19.5,0000.0,0017.87,0007.83,0006.44
2022-09-05 15:07:00,,0829.1,5.00,0.00,30.0,28.3,00.0,38.7,31.8,19.5,0000.0,0018.03,0007.80,0006.43
2022-09-05 15:08:00,,0829.0,5.00,0.00,30.0,28.4,00.0,38.7,31.8,18.7,0000.0,0018.32,0007.78,0006.41
2022-09-05 15:09:00,,0829.1,5.00,0.00,30.0,28.6,00.0,38.7,31.8,18.8,0000.0,0018.07,0007.76,0006.40
2022-09-05 15:10:00,,0829.0,5.00,0.00,30.0,28.7,00.0,38.7,31.9,18.8,0000.0,0018.77,0007.80,0006.41
2022-09-05 15:11:00,,0829.1,5.00,0.00,30.0,28.9,00.0,38.7,31.9,18.8,0000.0,0018.61,0007.76,0006.40
2022-09-05 15:12:00,,0828.9,5.01,0.00,30.1,29.0,00.0,38.8,32.0,18.8,0000.0,0018.54,0007.74,0006.38
2022-09-05 15:13:00,,0829.0,5.00,0.00,30.1,28.9,00.0,38.8,32.0,18.9,0000.0,0018.54,0007.77,0006.38
2022-09-05 15:14:00,,0828.9,4.99,0.00,30.1,28.0,00.0,38.8,32.0,18.6,0000.0,0019.65,0007.75,0006.36
2022-09-05 15:15:00,,0828.5,4.99,0.00,30.1,27.1,00.0,38.7,31.8,18.6,0000.0,0019.81,0007.72,0006.36
2022-09-05 15:16:00,,0828.5,5.00,0.00,30.0,27.3,00.0,38.7,31.9,18.8,0000.0,0019.70,0007.73,0006.35
2022-09-05 15:17:00,,0828.5,5.00,0.00,30.0,27.5,00.0,38.7,31.8,19.8,0000.0,0019.36,0007.73,0006.34
2022-09-05 15:18:00,,0828.5,5.00,0.00,30.0,27.8,00.0,38.7,31.7,20.4,0000.0,0019.43,0007.76,0006.34
2022-09-05 15:19:00,,0828.5,4.99,0.00,30.0,28.1,00.0,38.7,31.8,20.3,0000.0,0017.88,0007.72,0006.33
2022-09-05 15:20:00,,0828.5,5.00,0.00,30.0,28.3,00.0,38.7,31.7,20.4,0000.0,0017.78,0007.72,0006.32
2022-09-05 15:21:00,,0828.5,5.01,0.00,30.0,28.5,00.0,38.7,31.8,20.5,0000.0,0017.44,0007.69,0006.32
2022-09-05 15:22:00,,0828.5,5.00,0.00,30.0,28.7,00.0,38.7,31.9,20.6,0000.0,0018.26,0007.67,0006.32
2022-09-05 15:23:00,,0828.5,5.01,0.00,30.0,28.8,00.0,38.7,31.9,20.4,0000.0,0018.85,0007.68,0006.32
2022-09-05 15:24:00,,0828.5,4.99,0.00,30.1,28.9,00.0,38.7,32.0,20.7,0000.0,0018.96,0007.71,0006.33
2022-09-05 15:25:00,,0828.5,5.00,0.00,30.1,28.2,00.0,38.7,31.9,20.9,0000.0,0017.67,0007.70,0006.33
2022-09-05 15:26:00,,0828.5,5.02,0.00,30.0,27.2,00.0,38.7,31.8,20.9,0000.0,0017.68,0007.79,0006.35
2022-09-05 15:27:00,,0828.5,4.99,0.00,30.0,27.2,00.0,38.7,31.8,20.3,0000.0,0018.03,0007.82,0006.37
2022-09-05 15:28:00,,0828.6,5.00,0.00,30.0,27.5,00.0,38.7,31.7,19.4,0000.0,0018.67,0007.82,0006.37
2022-09-05 15:29:00,,0828.5,5.00,0.00,29.9,27.7,00.0,38.6,31.7,20.1,0000.0,0018.87,0007.81,0006.38
2022-09-05 15:30:00,,0828.4,5.00,0.00,29.9,28.0,00.0,38.6,31.7,19.7,0000.0,0019.89,0007.80,0006.39
2022-09-05 15:31:00,,0828.5,5.00,0.00,29.9,28.2,00.0,38.6,31.7,19.5,0000.0,0019.98,0007.78,0006.39
2022-09-05 15:32:00,,0828.5,5.00,0.00,30.0,28.4,00.0,38.7,31.8,20.1,0000.0,0019.76,0007.78,0006.38
2022-09-05 15:33:00,,0828.5,5.01,0.00,30.0,28.6,00.0,38.7,31.8,20.5,0000.0,0019.51,0007.76,0006.38
2022-09-05 15:34:00,,0828.5,4.98,0.00,30.0,28.7,00.0,38.7,31.9,18.2,0000.0,0019.50,0007.73,0006.37
2022-09-05 15:35:00,,0828.5,5.01,0.00,30.0,28.9,00.0,38.7,31.9,17.8,0000.0,0019.05,0007.66,0006.33
2022-09-05 15:36:00,,0828.5,4.99,0.00,30.1,28.8,00.0,38.7,32.0,18.0,0000.0,0019.67,0007.64,0006.31
2022-09-05 15:37:00,,0828.5,5.01,0.00,30.1,27.9,00.0,38.7,31.9,18.2,0000.0,0019.56,0007.62,0006.30
2022-09-05 15:38:00,,0828.5,4.99,0.00,30.0,27.2,00.0,38.7,31.8,18.0,0000.0,0018.79,0007.46,0006.27
2022-09-05 15:39:00,,0828.5,5.00,0.00,30.0,27.4,00.0,38.7,31.8,17.7,0000.0,0017.70,0007.41,0006.25
2022-09-05 15:40:00,,0828.5,5.01,0.00,30.0,27.6,00.0,38.6,31.7,17.7,0000.0,0017.61,0007.41,0006.25
2022-09-05 15:41:00,,0828.5,4.99,0.00,29.9,27.9,00.0,38.6,31.7,17.8,0000.0,0016.93,0007.38,0006.24
2022-09-05 15:42:00,,0828.5,5.00,0.00,29.9,28.1,00.0,38.6,31.7,17.7,0000.0,0016.43,0007.36,0006.24
2022-09-05 15:43:00,,0828.5,5.00,0.00,29.9,28.4,00.0,38.6,31.8,17.6,0000.0,0016.30,0007.39,0006.24
2022-09-05 15:44:00,,0828.5,5.01,0.00,30.0,28.6,00.0,38.7,31.8,17.5,0000.0,0016.72,0007.38,0006.23
2022-09-05 15:45:00,,0828.5,5.01,0.00,30.0,28.7,00.0,38.7,31.9,17.3,0000.0,0016.95,0007.35,0006.22
2022-09-05 15:46:00,,0828.5,4.98,0.00,30.0,28.4,00.0,38.7,31.9,17.3,0000.0,0017.24,0007.33,0006.23
2022-09-05 15:47:00,,0828.5,5.01,0.00,30.0,27.3,00.0,38.7,31.8,17.6,0000.0,0016.61,0007.27,0006.23
2022-09-05 15:48:00,,0828.5,5.00,0.00,29.9,27.0,00.0,38.6,31.7,17.3,0000.0,0016.15,0007.19,0006.21
2022-09-05 15:49:00,,0828.5,5.00,0.00,29.9,27.3,00.0,38.6,31.7,17.2,0000.0,0016.30,0007.15,0006.18
2022-09-05 15:50:00,,0828.5,5.00,0.00,29.9,27.6,00.0,38.6,31.6,17.5,0000.0,0016.44,0007.13,0006.16
2022-09-05 15:51:00,,0828.5,5.00,0.00,29.9,27.9,00.0,38.6,31.6,18.1,0000.0,0016.15,0007.09,0006.14
2022-09-05 15:52:00,,0828.9,5.00,0.00,29.9,28.1,00.0,38.6,31.7,20.6,0000.0,0016.30,0007.06,0006.11
2022-09-05 15:53:00,,0828.9,5.00,0.00,29.9,28.3,00.0,38.6,31.7,22.0,0000.0,0016.54,0007.06,0006.12
2022-09-05 15:54:00,,0829.1,5.00,0.00,29.9,28.5,00.0,38.6,31.8,22.0,0000.0,0017.23,0007.10,0006.14
2022-09-05 15:55:00,,0828.7,5.01,0.00,29.9,28.7,00.0,38.6,31.8,21.3,0000.0,0018.11,0007.15,0006.17
2022-09-05 15:56:00,,0828.7,4.98,0.00,30.0,28.5,00.0,38.6,31.9,20.7,0000.0,0017.41,0007.18,0006.19
2022-09-05 15:57:00,,0828.5,4.99,0.00,30.0,27.4,00.0,38.6,31.7,20.3,0000.0,0016.90,0007.21,0006.20
2022-09-05 15:58:00,,0828.8,5.01,0.00,29.9,26.9,00.0,38.6,31.7,20.2,0000.0,0016.79,0007.26,0006.21
2022-09-05 15:59:00,,0828.8,5.00,0.00,29.9,27.2,00.0,38.6,31.7,19.9,0000.0,0016.99,0007.36,0006.24
